Find Starlink 31540

NORAD ID: 59542 Int'l Des: 2024-074 Owner: SPXS Country: US Constellation: starlink operational
LEOCIRCULAR

リアルタイム位置

3D地球を読み込み中...

Starlink 31540について

説明を読み込み中...

次回通過

Passes for default location (London). Set your location on the main map for personalized predictions.

高度履歴

Loading altitude history...

軌道要素

1 59542U 24074J 26123.92087097 .00000337 00000-0 21752-4 0 9992
2 59542 43.0020 31.3980 0000983 264.9001 95.1739 15.27574846114461
Epoch: May 3, 2026 • Age: 8 hours

現在のステータス

高度 483.0 km
速度 7.63 km/s
衛星直下点 22.79°N, 138.1°W
打ち上げ日 Apr 18, 2024
運用期間 2 years
タイプ internet

技術仕様

分類 Payload
質量 730.00 kg
乾燥質量 700.00 kg
総質量 730.00 kg
長さ 0.30 m
直径 4.10 m
スパン 29.00 m
形状 Box + pan
製造者 SPXS
バスタイプ Starlink V2M
フェーズステータス In Orbit
所有者/国 SPXS/US

Most Searched